Regional Weather Roundup
Issued by NWS

Home | Current Version | Previous Version | Graphics & Text | Print | Product List | Glossary On
Versions: 1 2 3 4 5 6 7 8 9 10 11 12 13 14 15 16 17 18 19 20 21 22 23 24 25 26 27
000
ASUS45 KSLC 192310
RWRUT

UTAH REGIONAL WEATHER ROUNDUP
NATIONAL WEATHER SERVICE SALT LAKE CITY UT
500 PM MDT THU APR 19 2018

UTZ001>011-023>025-200000-

NORTHERN UTAH

CITY           SKY/WX    TMP DP  RH WIND       PRES   REMARKS
BRIGHAM CITY   PTSUNNY   66   8  10 N7        29.75F
DUGWAY         CLOUDY    61  52  73 NW13      29.75F
HILL AFB       PTSUNNY   64  15  15 NW12      29.74F
LOGAN          PTSUNNY   67  23  19 N9        29.76F
OGDEN          MOSUNNY   65  16  15 NW10      29.73F
SALT LAKE CITY PTSUNNY   66  21  18 N9        29.72F
TOOELE VALLEY  CLOUDY    61  28  29 N13       29.74F
WENDOVER       PTSUNNY   61  15  16 CALM      29.79F
HEBER CITY       N/A     61   7  11 S14G26    29.76S
WEST JORDAN    CLOUDY    64  23  21 S12       29.74F

$$

UTZ011>015-024>027-200000-

CENTRAL/NORTHEAST UTAH

CITY           SKY/WX    TMP DP  RH WIND       PRES   REMARKS
PROVO AIRPORT  PTSUNNY   66  16  14 S8        29.72F
MOAB/CANYONLAN CLOUDY    69   2   7 NW9       29.65F
DELTA          CLOUDY    59  16  18 NE8       29.72F
PRICE          CLOUDY    61  -3   7 CALM      29.75F
RICHFIELD      SUNNY     59  12  15 S24G36    29.71S
ROOSEVELT      PTSUNNY   63   5  10 NE6       29.80F
VERNAL         CLOUDY    64   4   9 NE6       29.81F

$$

UTZ013>016-019>022-027-200000-

SOUTHERN UTAH

CITY           SKY/WX    TMP DP  RH WIND       PRES   REMARKS
BRYCE CANYON   PTSUNNY   52  10  18 SW23G35   29.77F
CEDAR CITY     CLOUDY    54   8  16 S21G32    29.73S
MILFORD        CLOUDY    53  24  32 SW29G37   29.73R
ST GEORGE      MOCLDY    68   9  10 SW28G37   29.70S
HANKSVILLE     CLOUDY    70   5   8 CALM      29.68F
KANAB          MOSUNNY   59   0   9 S24G35    29.77R
BLANDING         N/A     68  10  10 S23G32    29.81F

$$

REGIONAL REPORTS     COLORADO/ARIZONA

CITY           SKY/WX    TMP DP  RH WIND       PRES   REMARKS
CRAIG, CO      CLOUDY    62  29  28 SE5       29.84F
GRAND JUNCTION CLOUDY    75  12   9 S17G29    29.69F
RIFLE, CO      CLOUDY    66  14  13 W7        29.78F
MONTROSE, CO   CLOUDY    70   5   8 SE16G22   29.80F
CORTEZ, CO     CLOUDY    67   8  10 SE16G28   29.78F
COLORADO CITY    N/A     63  10  13 SW25G31   29.78R
PAGE, AZ       MOSUNNY   73   3   6 S20G39    29.62F
GRAND CANYON   PTSUNNY   56  10  16 SW24G48   29.80R
KINGMAN, AZ    MOSUNNY   62  18  18 SW26G37   29.82R
FLAGSTAFF, AZ  MOSUNNY   52  10  18 SW31G45   29.82F

$$

REGIONAL REPORTS    NEVADA/IDAHO/WYOMING

CITY           SKY/WX    TMP DP  RH WIND       PRES   REMARKS
LAS VEGAS, NV  PTSUNNY   62  30  29 SW20G29   29.77F
ELY, NY        CLOUDY    48  21  34 N13G20    29.78F
ELKO, NV       LGT RAIN  49  34  56 N9        29.87R
POCATELLO, ID  PTSUNNY   65  21  18 N15       29.83F
BURLEY, ID     PTSUNNY   63  13  14 VRB5      29.81S
FORT BRIDGER,    N/A     59  -1   8 SE20G31   29.89F
EVANSTON, WY   PTSUNNY   57   4  12 S13G18    29.84F
ROCK SPRINGS,  CLOUDY    56  -2   9 SW13      29.90F
KEMMERER, WY   CLOUDY    55   0  10 S10G18    29.87F

$$




USA.gov is the U.S. government's official web portal to all federal, state and local government web resources and services.